Date,TemperatureHighF,TemperatureAvgF,TemperatureLowF,DewpointHighF,DewpointAvgF,DewpointLowF,HumidityHigh,HumidityAvg,HumidityLow,PressureMaxIn,PressureMinIn,WindSpeedMaxMPH,WindSpeedAvgMPH,GustSpeedMaxMPH,PrecipitationSumIn
2013-12-1,58.6,43.3,32.2,45.9,38.0,29.8,98,83,57,30.18,29.84,2,0,0,0.00
2013-12-2,52.7,45.3,36.9,52.2,44.8,36.2,98,98,97,29.85,29.66,3,0,0,0.05
2013-12-3,51.6,50.7,47.7,51.1,50.2,47.2,98,98,98,29.79,29.70,1,0,0,0.09
2013-12-4,56.8,53.9,50.4,56.2,53.4,49.9,98,98,98,29.91,29.78,2,0,0,0.20
2013-12-5,65.5,60.8,56.1,64.9,60.2,55.5,98,98,98,29.95,29.85,3,0,0,1.45
2013-12-6,69.3,65.2,56.7,68.7,64.6,56.1,98,98,98,29.90,29.79,5,1,0,0.88
2013-12-7,64.2,53.9,45.1,62.2,53.0,44.6,98,97,84,30.15,29.85,4,1,0,0.03
2013-12-8,49.1,42.0,39.4,48.6,41.5,38.9,98,98,98,30.17,30.06,4,1,0,0.64
2013-12-9,49.6,43.9,38.7,49.1,43.4,38.2,98,98,98,30.07,29.86,2,0,0,1.85
2013-12-10,49.8,42.4,28.4,49.3,40.1,27.2,98,92,73,30.15,29.77,5,2,0,0.26
2013-12-11,51.1,33.9,22.6,38.7,28.6,22.1,98,83,49,30.27,30.14,3,1,0,0.00
2013-12-12,49.1,36.1,27.3,30.0,24.8,18.5,85,65,38,30.24,30.13,5,2,0,0.00
2013-12-13,52.3,35.7,22.8,35.1,26.9,20.5,94,73,35,30.20,30.05,3,0,0,0.00
2013-12-14,46.9,42.8,37.2,46.4,41.6,33.3,98,96,85,30.05,29.65,3,0,0,1.18
2013-12-15,46.8,38.0,30.7,46.3,36.4,29.7,98,94,84,29.98,29.63,6,2,0,0.00
2013-12-16,56.7,38.6,27.9,39.9,32.9,27.4,98,83,48,30.03,29.95,4,1,0,0.00
2013-12-17,50.4,46.5,32.0,40.5,39.1,31.5,98,76,67,30.02,29.89,3,2,0,0.00
2013-12-18,39.0,33.7,30.0,24.8,23.7,22.9,75,67,56,30.14,30.10,2,0,0,0.00
2013-12-19,63.5,39.8,26.2,37.7,27.7,21.7,93,67,21,30.17,30.04,4,0,0,0.00
2013-12-20,58.6,44.6,31.1,50.9,41.2,29.8,98,89,66,30.09,29.99,3,0,0,0.00
2013-12-21,61.5,53.9,50.2,60.9,53.4,49.7,98,98,97,30.00,29.83,2,0,0,0.35
2013-12-22,64.2,59.0,55.6,63.6,58.4,55.0,98,98,98,29.92,29.77,4,1,0,4.09
2013-12-23,55.4,47.7,36.7,54.8,46.9,35.7,98,97,90,30.04,29.86,4,1,0,0.01
2013-12-24,41.0,33.1,25.2,35.1,28.3,22.4,98,83,63,30.20,30.02,4,2,0,0.00
2013-12-25,41.0,32.5,19.4,27.1,23.3,18.9,98,72,44,30.32,30.17,4,1,0,0.00
2013-12-26,55.6,35.7,23.0,36.5,28.7,22.5,98,79,43,30.17,30.08,3,1,0,0.00
2013-12-27,52.0,36.9,26.1,35.3,29.5,25.1,97,77,43,30.27,30.16,3,0,0,0.00
2013-12-28,40.8,34.3,26.2,40.3,33.6,25.7,98,97,88,30.23,29.83,3,0,0,0.63
2013-12-29,52.7,44.5,39.2,50.3,43.4,38.7,98,96,84,29.84,29.64,6,1,0,0.36
2013-12-30,50.5,44.5,40.3,44.9,41.9,38.4,98,91,79,30.01,29.81,4,1,0,0.00
2013-12-31,49.3,38.3,29.7,37.9,31.1,26.4,92,77,48,30.19,29.99,4,1,0,0.00